Colorado Springs, CO

4:06 AM MDT on September 26, 2016 (GMT -0600)
Usaf Academy

Weather History for KAFF - November, 2012

Change the Weather History Date:

Wednesday, November 7, 2012

  Actual Average Record
Temperature  
Mean Temperature 48 °F -  
Max Temperature 68 °F 49 °F 73 °F (2006)
Min Temperature 29 °F 26 °F 8 °F (2000)
Degree Days  
Heating Degree Days 16    
Moisture  
Dew Point 19 °F    
Average Humidity 40    
Maximum Humidity 78    
Minimum Humidity 13    
Precipitation  
Precipitation 0.00 in - - ()
Sea Level Pressure  
Sea Level Pressure 29.95 in    
Wind  
Wind Speed 8 mph (NNE)    
Max Wind Speed 14 mph    
Max Gust Speed -    
Visibility 10 miles    
Events      
Averages and records for this station are not official NWS values.
T = Trace of Precipitation, MM = Missing Value Source: NWS Daily Summary

Daily Weather History Graph

Daily Weather History Graph

Search for Another Location

Airport or City:

Trip Planner

Search our weather history database for the weather conditions in past years. The results will help you decide how hot, cold, wet, or windy it might be!

Date:

Astronomy

Nov. 07, 2012 Rise Set
Actual Time 6:33 AM MST 4:51 PM MST
Civil Twilight 6:05 AM MST 5:19 PM MST
Nautical Twilight 5:33 AM MST 5:51 PM MST
Astronomical Twilight 5:02 AM MST 6:22 PM MST
Moon No Moon Rise 12:58 PM MST (11/7)
Length of Visible Light 11h 14m
Length of Day
10h 17m
Last Quarter, 42% of the Moon is Illuminated
Nov 7
Last Quarter
Nov 13
New
Nov 20
First Quarter
Nov 28
Full
Dec 6
Last Quarter

Hourly Weather History & Observations

Time (MST) Temp. Windchill Dew Point Humidity Pressure Visibility Wind Dir Wind Speed Gust Speed Precip Events Conditions
12:55 AM 32.5 °F 25.5 °F 24.6 °F 73% 30.06 in 10.0 mi North 8.1 mph - N/A   Clear
1:55 AM 30.0 °F 20.5 °F 23.9 °F 78% 30.08 in 10.0 mi North 11.5 mph - N/A   Clear
2:55 AM 32.2 °F 28.9 °F 23.7 °F 71% 30.05 in 10.0 mi Variable 3.5 mph - N/A   Clear
3:55 AM 30.0 °F 24.1 °F 21.9 °F 72% 30.06 in 10.0 mi NNE 5.8 mph - N/A   Clear
4:55 AM 29.3 °F 22.3 °F 20.1 °F 69% 30.12 in 10.0 mi North 6.9 mph - N/A   Clear
5:55 AM 30.2 °F 23.4 °F 19.6 °F 65% 30.10 in 10.0 mi North 6.9 mph - N/A   Clear
6:55 AM 29.8 °F 20.3 °F 19.4 °F 65% 30.18 in 10.0 mi North 11.5 mph - N/A   Clear
7:55 AM 40.3 °F 35.5 °F 19.9 °F 44% 30.15 in 10.0 mi Variable 6.9 mph - N/A   Clear
8:55 AM 53.6 °F - 22.5 °F 30% 30.03 in 10.0 mi NW 3.5 mph - N/A   Clear
9:55 AM 63.5 °F - 18.5 °F 18% 29.95 in 10.0 mi SSE 9.2 mph - N/A   Clear
10:55 AM 65.8 °F - 17.2 °F 15% 29.90 in 10.0 mi South 9.2 mph - N/A   Clear
11:55 AM 66.2 °F - 17.6 °F 15% 29.88 in 10.0 mi SSE 12.7 mph - N/A   Clear
12:55 PM 68.4 °F - 16.0 °F 13% 29.81 in 10.0 mi SSE 10.4 mph - N/A   Clear
1:55 PM 68.7 °F - 16.7 °F 14% 29.80 in 10.0 mi South 9.2 mph - N/A   Clear
2:55 PM 68.7 °F - 18.1 °F 15% 29.78 in 10.0 mi South 13.8 mph - N/A   Clear
3:55 PM 64.8 °F - 18.0 °F 17% 29.82 in 10.0 mi South 13.8 mph - N/A   Clear
4:55 PM 57.2 °F - 18.7 °F 22% 29.91 in 10.0 mi SSE 8.1 mph - N/A   Clear
5:55 PM 46.2 °F 42.7 °F 18.1 °F 33% 29.98 in 10.0 mi North 6.9 mph - N/A   Clear
6:55 PM 43.5 °F 40.1 °F 18.3 °F 36% 30.01 in 10.0 mi NNW 5.8 mph - N/A   Clear
7:55 PM 40.6 °F 34.3 °F 18.7 °F 41% 29.95 in 10.0 mi North 10.4 mph - N/A   Clear
8:55 PM 37.9 °F 32.7 °F 19.6 °F 48% 29.86 in 10.0 mi North 6.9 mph - N/A   Clear
9:55 PM 36.5 °F 29.2 °F 16.9 °F 45% 29.80 in 10.0 mi North 10.4 mph - N/A   Clear
10:55 PM 43.9 °F 38.8 °F 11.7 °F 27% 29.78 in 10.0 mi ENE 9.2 mph - N/A   Clear
11:55 PM 43.3 °F 38.6 °F 11.5 °F 27% 29.77 in 10.0 mi North 8.1 mph - N/A   Clear